Tracking 30106 objects as of 24-Jan-2025
HD Live streaming from Space Station
objects crossing your sky now

ATLAS 2AS CENTAUR R/B

Track ATLAS 2AS CENTAUR R/B now!
10-day predictions


NORAD ID: 26072
Int'l Code: 2000-007B
Perigee: 258.1 km
Apogee: 6,982.5 km
Inclination: 18.1 °
Period: 165.7 minutes
Semi major axis: 9991 km
RCS: 16.571 m2 (large)
Launch date: February 3, 2000
Source: United States (US)
Launch site: AIR FORCE EASTERN TEST RANGE (AFETR)

Note: This is a ROCKET BODY
Your satellite tracking list
Your tracking list is empty




NASA's NSSDC Master Catalog

Two Line Element Set (TLE):
1 26072U 00007B   25023.67499548  .00050578  00000-0  15414-2 0  9990
2 26072  18.0913 128.6274 3365098 306.4916  26.9670  8.69298677550714
Source of the keplerian elements: AFSPC